PAMRPATK

Guest
Details From PAMR - Merrill Fld
To PATK - TALKEETNA
Flight Number -
Tags decoded
Created
Modified
Stats Distance 89 nm / 165 km
Max Altitude 0 ft / 0 m
Waypoints 9
Social Downloads 0
Likes 0
Share VATSIM

Download

Looking for another format? Having issues loading an existing format? Contact us
Advertisement - Login to hide

Notes

Requested: PAMR GRANL GRUUB TAGER TODME URTOW JOZPO EZZOL PATK

Route

PAMR GRANL GRUUB TAGER TODME URTOW JOZPO EZZOL PATK

ID Type Via Altitude Latitude Longitude Leg Dist Tot Dist Heading (true) Name
O PAMR APT - 0 ft / 0 m 61.21292˚ -149.84481˚ - 0 nm - Merrill Fld
GRANL FIX - 0 ft / 0 m 61.21976˚ -150.17650˚ 9 nm 9 nm 273° / 272° -
GRUUB FIX - 0 ft / 0 m 61.35587˚ -150.57165˚ 14 nm 23 nm 306° / 305° -
TAGER FIX - 0 ft / 0 m 61.67294˚ -150.46041˚ 19 nm 42 nm 9° / 10° -
TODME FIX - 0 ft / 0 m 61.89317˚ -150.13183˚ 16 nm 59 nm 35° / 35° -
URTOW FIX - 0 ft / 0 m 62.06695˚ -150.06091˚ 10 nm 69 nm 11° / 11° -
JOZPO FIX - 0 ft / 0 m 62.15332˚ -150.27601˚ 7 nm 77 nm 311° / 311° -
EZZOL FIX - 0 ft / 0 m 62.24245˚ -150.17910˚ 6 nm 83 nm 27° / 27° -
O PATK APT - 0 ft / 0 m 62.32051˚ -150.09369˚ 5 nm 88 nm 27° / 27° TALKEETNA

Altitude Profile

Advertisement - Login to hide

PAMR

Details ICAO PAMR (MRI)
Name Merrill Fld
Region USA (Alaska)
Timezone America/Anchorage (UTC-8.0)
Stats Elevation 137 ft / 42 m (AMSL)
Location 61.212917° -149.844813°
Runways 3
Magnetic Variation 16.130° E

METAR

PAMR 221753Z 00000KT 10SM FEW120 11/04 A2964 RMK AO2 SLP037 T01060044 10111 20067 53012

Decode

TAF

Not found

Departure Runways

ID Width Length Bearing (true) Bearing (mag) Surface Threshold Offset Overrun Length
04 60 ft / 18 m 1,994 ft / 608 m 66.10° 49.97° Gravel 0 ft / 0 m 0 ft / 0 m
07 100 ft / 30 m 3,986 ft / 1,215 m 90.01° 73.88° Asphalt 0 ft / 0 m 0 ft / 0 m
16 75 ft / 23 m 2,635 ft / 803 m 180.03° 163.90° Asphalt 0 ft / 0 m 0 ft / 0 m
22 60 ft / 18 m 1,994 ft / 608 m 246.11° 229.98° Gravel 0 ft / 0 m 0 ft / 0 m
25 100 ft / 30 m 3,986 ft / 1,215 m 270.03° 253.90° Asphalt 0 ft / 0 m 0 ft / 0 m
34 75 ft / 23 m 2,635 ft / 803 m 0.03° 343.90° Asphalt 0 ft / 0 m 0 ft / 0 m

PATK

Details ICAO PATK (TKA)
Name TALKEETNA
Region USA (Alaska)
Timezone America/Anchorage (UTC-8.0)
Stats Elevation 358 ft / 109 m (AMSL)
Location 62.320512° -150.093685°
Runways 1
Magnetic Variation 16.198° E

METAR

PATK 221753Z 00000KT 10SM BKN060 11/02 A2964 RMK SLP039 T01110022 10111 20072 51005 VIA AUTODIAL

Decode

TAF

PATK 221733Z 2218/2318 20005KT P6SM SCT050 BKN070 FM230200 19010G18KT P6SM BKN100 FM230700 18007KT P6SM SCT080 BKN120

Decode

Destination Runways

ID Width Length Bearing (true) Bearing (mag) Surface Threshold Offset Overrun Length
18 75 ft / 23 m 3,503 ft / 1,068 m 207.01° 190.81° Asphalt 0 ft / 0 m 0 ft / 0 m
36 75 ft / 23 m 3,503 ft / 1,068 m 27.01° 10.81° Asphalt 0 ft / 0 m 0 ft / 0 m

Popular Alternatives